Temp_Advection
nan nan nan nan nan nan nan nan nan nan nan nan nan nan nan nan nan nan nan nan nan nan nan nan nan nan nan nan nan nan nan nan nan nan nan nan nan nan nan nan nan nan nan nan nan nan nan
nan 0 0 -0 -0 0 1 0 0 0 0 -0 -0 -0 -0 -0 -0 0 0 0 0 0 -0 -0 -0 -0 0 -0 -0 -0 -0 -0 0 -0 -0 0 -0 0 -0 0 -0 0 0 1 0 0 nan
nan 0 0 0 -0 0 0 0 0 -0 0 0 0 -0 -0 -0 -0 -0 0 0 -0 0 0 0 0 -0 -0 -0 -0 -0 -0 -0 -0 -0 -0 0 0 0 0 0 0 0 0 0 0 0 nan
nan 0 1 0 -0 -0 1 1 0 0 0 -0 0 0 0 -0 -0 -0 0 0 0 -0 -0 0 0 -0 -0 -0 -0 -0 -0 -0 -0 -0 -0 -0 0 -0 0 0 -0 -0 0 0 0 0 nan
nan -1 0 1 0 -0 0 1 0 0 0 0 -0 -0 0 0 -0 -0 -0 0 0 0 0 -0 0 -0 -0 0 -0 -0 -0 0 -0 -0 0 -0 0 0 0 0 0 0 0 0 0 0 nan
nan -0 -0 0 0 -0 -0 1 1 0 -0 0 -0 -0 0 0 0 0 0 0 0 0 0 0 0 -0 -0 0 -0 -0 0 -0 -0 -0 0 0 -0 0 0 0 0 -0 0 0 -0 0 nan
nan 0 -0 0 0 0 -0 0 1 0 -0 -0 -0 -0 0 0 -0 0 0 -0 -0 -0 0 0 0 -0 0 0 0 0 0 -0 -0 -0 -0 -0 0 -0 -0 0 0 -0 0 0 -0 0 nan
nan 0 0 0 0 0 -0 0 1 0 0 -0 -0 0 -0 0 0 0 0 -0 -0 -0 -0 0 0 0 0 0 0 0 0 -0 -0 0 0 0 -0 0 0 0 0 0 -0 0 0 0 nan
nan 0 -0 0 0 0 0 0 1 1 0 0 -0 -0 0 0 0 0 0 0 -0 -0 -0 -0 0 0 0 0 0 0 0 0 -0 -0 -0 0 0 -0 0 -0 -0 -0 -0 0 0 0 nan
nan 0 0 0 0 0 0 0 1 1 1 1 0 -0 0 0 0 0 0 0 0 -0 0 -0 0 0 0 -0 0 0 0 0 -0 -0 -0 0 0 0 0 0 0 -0 0 -0 0 0 nan
nan 0 0 0 0 0 0 0 0 1 1 1 0 0 0 0 -0 0 0 0 0 -0 0 -0 0 -0 0 -0 -0 0 0 -0 -0 -0 -0 0 0 0 0 0 -0 0 0 0 -0 0 nan
nan 1 1 0 0 0 0 0 0 0 0 0 0 0 -0 -0 0 0 0 0 -0 -0 -0 -0 0 0 -0 -0 -0 0 0 0 -0 0 -0 -0 0 0 0 0 -0 -0 -0 -0 -0 0 nan
nan 0 0 0 0 0 0 0 0 0 0 -0 -0 -0 -0 -0 -0 0 -0 0 -0 0 -0 -0 0 -0 0 0 -0 -0 0 0 -0 0 0 -0 -0 -0 0 0 -0 -0 -0 -0 0 -0 nan
nan 0 0 0 0 0 0 0 0 0 -0 -0 -0 0 -0 -0 -0 -0 -0 -0 0 -0 -0 -0 0 -0 -0 -0 -0 -0 0 0 -0 0 0 0 -0 -0 -0 0 0 0 -0 -0 0 0 nan
nan 1 0 0 0 0 0 0 0 0 -0 -0 0 0 -0 0 -0 -0 -0 -0 -0 -0 0 -0 -0 0 0 -0 -0 -0 0 0 -0 -0 -0 -0 0 -0 -0 0 0 0 0 -0 -0 -0 nan
nan 0 0 0 0 0 0 0 0 0 0 -0 0 0 0 0 -0 -0 -0 -0 0 -0 0 0 -0 -0 0 -0 -0 -0 0 -0 -0 -0 0 -0 0 -0 -0 -0 0 0 0 -0 0 -0 nan
nan 0 0 0 0 0 0 0 -0 0 0 -0 -0 0 0 0 0 -0 -0 -0 -0 -0 -0 -0 -0 -0 0 0 0 -0 0 -0 0 -0 -0 -0 0 0 0 -0 -0 -0 -0 -0 -0 0 nan
nan 0 0 0 0 0 0 0 -0 0 0 -0 -0 -0 0 0 -0 -0 -0 -0 -0 -0 -0 -0 -0 -0 -0 -0 -0 -0 -0 -0 -0 -0 -0 -0 0 0 0 -0 -0 0 -0 -0 0 0 nan
nan 1 0 0 0 0 0 0 0 0 0 -0 -0 -0 0 -0 0 0 -0 -0 -0 0 -0 -0 0 0 -0 -0 -0 0 0 -0 0 -0 -0 -0 -0 0 0 -0 -0 0 -0 -0 -0 -0 nan
nan 1 0 0 0 -0 0 0 0 0 0 -0 -0 -0 0 0 -0 0 -0 -0 -0 -0 0 0 0 0 0 -0 -0 0 0 0 0 0 -0 -0 -0 0 0 0 -0 0 0 -0 0 -0 nan
nan 1 0 0 0 -0 0 0 0 -0 -0 -0 -0 -0 0 0 0 0 -0 -0 -0 -0 -0 -0 -0 0 0 0 -0 -0 0 0 0 0 -0 -0 -0 0 -0 0 0 0 0 1 0 -0 nan
nan 0 0 0 0 0 0 -0 -0 -0 0 0 0 -0 -0 0 0 0 -0 -0 -0 0 -0 -0 0 -0 0 0 -0 -0 -0 -0 0 -0 -0 -0 -0 0 -0 -0 0 0 0 0 -0 0 nan
nan 0 0 0 0 0 0 0 -0 -0 0 -0 -0 -0 -0 -0 0 0 0 -0 -0 -0 0 0 0 -0 0 -0 -0 -0 -0 0 0 0 0 0 -0 -0 -0 -0 -0 -0 0 -0 0 -0 nan
nan 0 0 0 0 0 0 0 0 0 0 -0 -0 -0 -0 -0 0 0 0 -0 -0 -0 -0 -0 -0 0 -0 0 0 -0 -1 -0 -0 -0 -0 -0 -0 -0 -0 -0 -0 -0 0 0 -0 -0 nan
nan 0 0 0 0 0 0 0 0 0 -0 -0 0 -0 -0 -0 0 0 -0 -0 -0 -0 0 -0 -0 -0 -0 0 -0 -0 -0 0 -0 -0 -0 -0 -0 -0 -0 -0 -1 -0 0 -0 -0 -0 nan
nan 0 0 0 0 0 0 0 0 0 -0 -0 0 -0 -0 -1 0 0 0 -0 0 -0 -0 -0 -0 -0 0 0 -0 0 0 0 0 -0 -0 -0 -0 -0 -0 -0 -0 -0 -0 -0 -0 -0 nan
nan 0 0 0 0 0 0 0 0 -0 -0 0 0 -0 -0 -0 -0 -0 -0 0 0 -0 0 -0 -0 -0 -0 -0 0 0 0 0 0 0 0 -0 -0 0 -0 -0 -0 -0 -0 -0 0 -0 nan
nan -0 0 0 0 0 0 0 0 -0 0 -0 -0 0 0 -0 -0 0 0 0 -0 -0 0 -0 0 -0 -0 0 0 0 -0 0 0 0 0 -0 -0 0 0 -0 -0 -0 -0 -0 -0 -0 nan
nan nan nan nan nan nan nan nan nan nan nan nan nan nan nan nan nan nan nan nan nan nan nan nan nan nan nan nan nan nan nan nan nan nan nan nan nan nan nan nan nan nan nan nan nan nan nan
Wind_Speed
20 21 21 22 23 19 19 19 19 18 18 15 13 16 19 18 14 9 9 9 9 7 8 9 12 9 4 2 4 3 3 8 14 20 10 16 17 11 5 9 8 3 8 18 12 18 11
21 20 21 21 22 21 20 18 19 19 19 17 17 13 16 19 15 11 9 10 12 7 7 10 10 9 5 2 3 6 3 5 14 22 13 14 13 12 7 9 5 8 7 10 13 12 9
23 19 22 22 20 21 21 19 19 18 18 19 18 14 14 14 15 10 9 10 9 9 10 11 8 7 6 6 5 7 5 11 15 18 21 11 15 12 6 6 8 10 6 3 3 9 4
20 21 23 24 20 20 20 19 20 18 17 19 20 18 12 10 13 10 9 9 8 9 8 3 3 4 4 5 10 12 9 13 18 14 25 18 9 15 1 11 6 6 4 6 4 9 5
21 20 24 24 22 20 20 19 20 18 18 18 20 19 17 11 9 10 8 9 7 7 6 5 3 3 5 6 10 10 10 14 20 14 18 19 9 7 5 8 4 2 6 5 4 13 7
23 23 19 23 23 21 21 21 19 19 19 18 19 19 18 11 8 7 7 7 3 6 8 7 5 4 3 5 6 5 7 18 17 21 15 9 7 3 3 6 14 8 7 5 6 9 7
22 22 21 21 22 21 23 20 20 20 20 19 19 18 17 11 8 5 5 3 4 2 4 4 8 7 8 9 6 1 8 24 21 14 5 6 7 11 6 3 4 6 6 7 3 8 6
21 21 20 22 21 20 21 22 21 20 20 20 19 18 16 9 6 4 3 2 3 2 5 3 6 6 6 9 5 13 21 9 14 12 5 4 9 4 10 7 9 10 6 3 2 6 7
23 18 20 22 21 20 21 22 24 23 20 19 19 15 14 7 4 3 3 1 1 6 1 5 7 6 4 7 7 10 5 13 14 7 6 5 7 8 7 5 7 3 9 4 5 4 1
21 19 19 21 20 19 21 22 24 22 20 20 20 13 11 4 2 3 2 3 1 4 4 5 4 3 3 2 5 9 11 7 3 7 7 4 7 7 7 4 5 3 4 5 7 4 3
21 20 20 20 18 18 20 22 24 20 20 21 17 12 6 3 2 4 3 3 1 1 5 2 4 4 3 3 9 6 8 11 7 9 4 1 7 8 6 7 4 3 5 5 4 4 3
22 20 20 19 17 17 20 22 23 21 20 20 16 8 0 1 3 3 3 3 0 5 1 3 2 4 2 4 4 4 3 8 11 4 6 4 3 3 3 3 4 9 6 7 4 2 2
22 21 20 18 16 16 20 21 22 19 20 18 10 2 4 4 3 5 3 2 4 5 3 2 2 0 2 4 4 4 2 6 3 4 3 8 3 2 3 6 4 3 5 2 1 0 4
23 20 20 18 16 16 19 21 21 19 18 13 4 5 5 4 5 6 4 3 5 3 3 2 1 2 0 1 3 4 1 3 3 4 4 4 4 1 4 3 7 2 4 4 5 4 3
24 21 20 17 15 16 18 20 20 17 16 10 3 7 5 6 5 3 1 3 5 6 4 4 0 1 2 2 3 3 2 2 4 5 4 5 3 2 3 0 1 4 2 4 5 2 1
26 21 19 16 14 15 17 19 18 15 13 4 7 6 5 7 3 2 2 3 0 3 2 2 2 2 1 2 1 1 1 1 3 2 3 3 5 3 3 1 6 2 5 3 2 2 3
24 21 18 15 13 15 16 17 15 14 10 2 7 4 4 6 3 2 1 4 3 4 1 1 2 2 2 1 1 1 4 2 1 2 3 4 3 2 4 4 6 1 2 4 3 3 3
24 20 17 14 13 14 15 15 12 12 6 5 5 1 5 7 1 1 2 4 1 1 3 1 1 2 5 4 2 0 5 4 7 5 3 1 4 3 2 2 2 2 4 4 3 4 0
24 20 16 14 12 13 14 12 10 9 2 6 6 3 4 5 1 2 4 2 2 1 2 2 1 1 2 3 2 1 1 3 9 3 6 5 1 4 3 2 3 2 5 3 4 2 6
26 20 17 13 11 12 12 8 8 7 1 7 5 3 3 3 2 0 2 1 1 1 0 1 2 1 2 2 3 2 2 3 5 4 7 5 3 4 6 2 4 5 11 15 14 5 9
27 19 16 12 11 10 8 5 6 5 2 6 4 2 4 3 3 1 2 2 1 0 1 2 2 2 2 3 2 3 1 1 4 6 3 3 3 3 2 2 3 4 5 14 16 16 12
25 21 16 14 11 7 3 2 4 3 3 5 4 5 4 4 3 3 1 1 1 1 1 1 2 1 2 3 3 6 5 3 3 2 3 3 2 2 3 2 2 3 7 9 16 18 19
26 22 18 15 8 5 2 1 1 2 2 3 5 6 4 1 2 3 2 1 1 3 3 4 1 1 2 2 3 1 4 5 8 7 3 5 4 2 2 3 3 6 7 11 5 4 11
28 24 19 13 9 6 4 3 2 2 3 3 6 7 4 1 2 2 0 1 2 4 2 3 2 1 2 2 7 8 11 10 9 4 5 5 3 2 0 4 3 5 2 2 9 8 8
29 25 18 13 10 7 5 4 3 3 3 2 6 5 5 3 2 2 1 2 4 3 1 1 3 3 2 3 3 3 3 3 3 1 2 3 4 3 3 3 5 2 1 3 5 3 4
30 25 19 14 12 9 7 4 3 2 3 2 5 6 4 10 2 2 2 5 2 2 2 3 3 4 2 2 1 3 4 4 2 2 2 3 3 3 2 2 4 5 2 2 1 3 3
32 27 20 16 14 11 8 5 3 3 3 2 5 6 5 7 4 3 3 3 2 2 1 2 7 4 4 2 2 2 3 5 4 5 4 3 1 4 3 3 6 6 4 6 3 4 5
35 28 21 18 16 13 10 7 5 5 3 1 5 6 6 7 8 6 4 3 2 2 2 3 1 4 3 2 3 3 2 4 3 1 5 5 5 3 3 2 6 3 3 3 3 8 9
34 28 23 21 17 15 12 9 7 6 3 2 6 8 11 8 10 12 14 13 9 2 1 4 3 1 1 0 1 2 1 1 3 2 1 2 5 4 6 5 3 1 5 10 12 15 16
Wind_Direction
344 338 336 342 345 351 350 348 350 352 350 350 339 334 333 340 337 333 336 338 336 333 335 347 357 355 356 284 269 287 350 167 199 207 189 179 171 168 136 160 124 125 174 174 125 165 156
342 336 332 335 341 345 347 346 346 350 353 353 343 333 332 337 336 331 322 324 324 319 319 327 334 343 335 295 288 329 289 185 179 205 200 172 175 169 114 158 149 152 131 138 194 152 162
332 339 331 328 336 340 344 346 345 349 351 347 348 339 328 333 333 348 337 332 331 324 313 303 309 314 309 265 308 301 265 213 188 205 205 184 161 181 161 135 118 148 101 88 177 174 182
329 340 330 324 333 335 337 339 341 345 345 343 344 340 325 319 329 329 336 331 329 329 353 320 323 326 261 271 295 284 249 217 202 204 201 206 139 193 37 132 89 101 103 165 201 168 193
318 327 327 323 326 332 332 337 339 342 338 338 339 339 334 319 311 318 326 321 315 320 342 335 327 340 300 283 301 299 213 211 203 200 192 205 166 164 137 130 104 164 165 148 167 189 153
316 318 323 323 320 328 331 336 334 336 333 333 334 335 332 314 307 311 331 326 316 326 331 301 303 305 236 285 301 265 176 174 169 165 145 199 173 139 109 174 184 162 119 146 166 180 179
305 310 312 318 318 324 331 334 332 331 332 330 332 330 330 324 297 303 335 342 327 308 346 308 303 284 309 303 345 315 136 151 157 154 156 236 169 178 150 100 135 118 116 139 153 177 178
303 311 310 313 317 321 328 333 334 333 328 327 328 329 329 323 281 271 315 43 40 336 311 331 326 308 322 350 8 75 121 141 153 143 127 148 179 160 138 118 130 126 123 146 107 148 175
294 308 306 310 314 319 325 331 333 336 331 329 327 333 328 317 276 239 232 244 85 355 290 320 330 334 350 27 36 52 70 105 136 118 185 152 142 154 129 111 98 75 160 172 155 108 186
295 303 302 307 310 318 323 329 332 331 332 328 330 331 328 308 255 215 200 228 287 5 64 301 358 356 1 73 53 53 86 93 88 145 189 121 155 140 134 113 115 114 169 149 134 116 182
292 300 299 304 307 315 319 326 332 337 333 330 337 327 326 228 172 168 155 179 227 56 48 331 323 325 2 116 141 30 61 97 80 165 194 108 138 145 134 161 150 134 142 117 100 102 113
285 293 298 300 305 312 317 325 331 335 333 340 338 332 141 153 177 184 154 155 37 48 316 346 346 348 316 132 93 85 72 85 126 20 67 86 64 71 123 66 140 152 89 56 56 88 239
278 286 295 297 302 309 316 324 327 333 335 342 348 57 122 103 111 154 149 164 42 95 301 314 105 258 266 41 64 91 55 135 146 147 134 112 38 32 60 90 35 93 93 72 52 350 224
270 279 288 290 299 308 316 323 326 335 338 345 8 125 116 102 104 129 133 47 73 223 220 241 107 100 95 154 76 96 90 133 100 91 103 139 147 86 4 112 167 132 136 154 179 193 234
264 273 280 285 296 306 316 320 325 335 337 344 151 146 124 125 107 131 50 50 186 201 161 139 159 348 38 59 113 111 114 157 163 199 124 124 97 84 51 115 55 181 137 150 108 62 40
259 265 273 280 291 304 316 318 324 336 334 338 164 156 142 151 149 112 78 274 98 232 147 126 140 105 144 114 85 137 116 250 121 131 227 181 114 8 132 87 36 112 154 88 23 164 246
250 256 265 273 286 302 314 316 324 335 331 162 169 149 156 168 172 69 160 234 286 252 202 119 164 116 176 191 197 136 151 347 157 125 121 135 96 134 149 211 155 106 112 60 125 153 187
245 249 257 267 280 298 310 314 328 333 330 167 178 89 174 159 197 147 243 195 204 201 196 246 132 81 163 156 114 134 170 204 199 165 81 90 109 120 140 330 32 98 143 180 153 220 37
241 244 250 259 275 292 305 314 336 334 307 173 164 123 173 180 237 259 284 272 229 160 185 180 159 163 202 162 76 218 123 316 172 117 153 179 120 121 101 353 351 196 204 194 121 100 188
236 238 243 250 267 287 299 319 341 341 195 170 162 129 165 204 216 311 322 336 259 241 119 137 140 129 121 96 71 149 107 35 169 100 117 106 113 157 181 178 135 188 206 220 225 222 236
226 231 230 243 258 280 294 322 345 357 149 177 162 177 163 172 189 195 300 296 270 4 344 34 31 120 154 132 107 132 112 74 62 135 59 91 131 123 221 129 145 193 196 213 222 233 231
221 221 220 234 242 258 265 325 341 19 173 191 173 155 154 124 152 134 330 261 279 117 329 9 138 344 155 143 161 189 140 170 193 75 100 46 136 114 31 37 136 239 221 222 227 236 244
213 209 211 222 226 234 208 163 28 43 186 192 157 156 156 26 119 141 190 216 272 328 47 74 273 91 92 17 338 139 168 171 175 151 134 143 129 87 273 345 325 291 230 200 192 226 217
203 200 206 211 206 211 198 161 130 91 90 156 156 145 140 133 104 137 120 268 349 344 40 329 50 159 20 144 91 77 71 81 125 80 139 135 110 79 347 18 355 255 354 194 211 251 220
193 197 200 202 195 192 183 157 123 109 95 94 132 145 150 109 118 132 52 21 326 341 75 281 20 21 321 132 54 59 12 22 351 56 118 88 121 109 136 197 290 310 211 153 174 293 216
189 192 196 191 182 183 184 153 115 85 73 67 95 121 132 125 225 120 103 52 82 355 14 3 347 338 169 88 41 176 174 184 213 108 136 125 87 110 146 163 245 237 240 218 127 287 225
185 187 189 185 177 181 177 164 136 96 98 100 98 116 130 107 108 116 101 97 80 78 100 341 334 356 28 153 134 175 225 169 164 178 161 129 95 164 198 220 287 246 254 152 85 234 309
183 181 184 178 176 175 174 164 142 121 112 70 97 121 149 104 109 99 88 98 95 61 118 334 178 23 337 184 155 194 170 205 143 179 170 159 157 190 154 196 278 187 139 181 251 313 312
180 181 180 174 172 172 168 157 148 130 104 95 103 112 125 104 116 99 91 75 66 69 359 31 99 154 70 273 39 124 126 110 150 206 46 181 178 178 178 210 245 278 297 313 332 323 318
Height
1547 1544 1541 1536 1533 1529 1525 1522 1517 1514 1511 1509 1507 1504 1500 1497 1494 1492 1491 1490 1488 1486 1484 1482 1481 1480 1480 1481 1479 1478 1478 1476 1479 1481 1486 1490 1495 1500 1500 1503 1509 1512 1514 1519 1523 1525 1529
1547 1543 1539 1536 1532 1528 1524 1520 1516 1513 1511 1507 1504 1501 1499 1496 1494 1492 1490 1489 1488 1486 1484 1482 1480 1479 1480 1482 1478 1478 1478 1479 1481 1483 1487 1488 1494 1499 1501 1504 1507 1510 1514 1517 1522 1525 1529
1546 1542 1538 1535 1531 1527 1523 1519 1515 1512 1509 1506 1501 1499 1496 1496 1493 1491 1489 1487 1486 1484 1482 1481 1479 1478 1479 1479 1477 1477 1477 1479 1481 1484 1486 1488 1494 1498 1500 1504 1506 1509 1516 1519 1521 1525 1529
1543 1541 1537 1533 1530 1526 1522 1518 1514 1511 1507 1504 1500 1496 1494 1493 1492 1490 1487 1486 1485 1483 1480 1479 1478 1478 1476 1475 1474 1474 1474 1477 1481 1484 1488 1489 1493 1498 1500 1502 1506 1512 1518 1522 1522 1524 1528
1541 1538 1536 1531 1528 1524 1520 1516 1513 1509 1506 1502 1498 1495 1491 1490 1491 1488 1486 1485 1483 1483 1481 1480 1479 1477 1475 1474 1472 1470 1470 1473 1479 1485 1489 1490 1495 1499 1501 1503 1509 1513 1515 1520 1524 1522 1525
1538 1536 1532 1529 1526 1522 1518 1514 1511 1507 1503 1500 1496 1493 1489 1487 1487 1486 1484 1484 1482 1482 1481 1479 1479 1480 1475 1472 1469 1467 1467 1472 1478 1483 1489 1492 1495 1498 1500 1500 1501 1508 1516 1519 1520 1522 1524
1535 1533 1530 1526 1524 1521 1516 1512 1509 1505 1501 1497 1493 1490 1486 1486 1485 1484 1483 1482 1485 1483 1480 1479 1479 1476 1472 1470 1464 1461 1465 1471 1478 1484 1486 1489 1490 1492 1498 1500 1502 1505 1514 1517 1518 1518 1522
1530 1529 1527 1524 1521 1518 1515 1510 1506 1502 1498 1494 1490 1486 1484 1482 1481 1483 1483 1483 1484 1484 1479 1478 1478 1476 1473 1470 1468 1467 1470 1475 1478 1483 1492 1494 1491 1496 1496 1500 1503 1505 1516 1518 1516 1517 1520
1526 1524 1524 1521 1518 1516 1512 1508 1503 1499 1494 1491 1486 1483 1481 1479 1479 1480 1482 1482 1481 1481 1481 1477 1477 1476 1475 1473 1473 1474 1475 1475 1481 1489 1492 1490 1493 1495 1497 1502 1505 1511 1512 1519 1518 1519 1522
1522 1520 1519 1518 1514 1513 1510 1505 1501 1496 1492 1487 1483 1481 1478 1477 1479 1480 1481 1480 1481 1479 1490 1482 1477 1477 1476 1474 1477 1477 1479 1482 1486 1492 1495 1493 1494 1496 1499 1504 1506 1511 1511 1514 1517 1521 1527
1518 1516 1515 1514 1511 1510 1507 1503 1498 1493 1489 1484 1481 1478 1477 1475 1478 1478 1480 1479 1479 1480 1498 1480 1477 1476 1475 1476 1479 1479 1478 1483 1488 1492 1492 1494 1494 1497 1500 1502 1505 1511 1512 1514 1519 1525 1526
1513 1512 1511 1510 1508 1506 1503 1499 1495 1490 1486 1482 1478 1476 1475 1475 1477 1478 1480 1480 1481 1492 1495 1482 1477 1477 1475 1475 1480 1482 1481 1482 1489 1488 1489 1493 1496 1498 1501 1503 1503 1510 1514 1521 1527 1528 1529
1508 1507 1506 1505 1504 1503 1500 1496 1492 1488 1484 1480 1476 1474 1474 1476 1477 1477 1479 1480 1492 1493 1484 1476 1478 1476 1476 1475 1477 1482 1483 1485 1486 1489 1493 1496 1501 1501 1501 1503 1507 1508 1514 1529 1535 1538 1527
1503 1502 1502 1501 1500 1499 1497 1493 1489 1485 1482 1478 1476 1475 1475 1476 1478 1479 1479 1482 1493 1489 1482 1474 1473 1476 1477 1476 1479 1481 1485 1482 1486 1486 1493 1494 1505 1504 1505 1505 1509 1509 1511 1526 1529 1531 1528
1497 1497 1497 1496 1495 1495 1493 1490 1486 1483 1480 1477 1476 1476 1476 1477 1479 1480 1482 1495 1485 1482 1472 1473 1476 1476 1475 1476 1478 1481 1485 1483 1485 1484 1487 1502 1502 1506 1507 1507 1507 1513 1516 1519 1534 1546 1539
1493 1492 1493 1492 1491 1491 1489 1487 1483 1481 1478 1476 1476 1476 1477 1477 1478 1481 1483 1482 1480 1474 1474 1474 1474 1475 1478 1478 1479 1479 1482 1482 1481 1485 1486 1494 1502 1505 1508 1508 1510 1510 1514 1521 1527 1536 1527
1486 1487 1488 1488 1488 1487 1485 1483 1480 1478 1476 1475 1477 1477 1478 1478 1479 1481 1489 1485 1477 1476 1474 1475 1475 1474 1479 1480 1481 1480 1483 1482 1481 1484 1485 1489 1496 1509 1507 1507 1506 1513 1515 1519 1519 1526 1521
1479 1482 1483 1483 1484 1483 1482 1480 1478 1476 1475 1474 1475 1477 1478 1478 1480 1479 1483 1478 1474 1473 1473 1473 1472 1470 1477 1477 1481 1482 1483 1482 1480 1481 1484 1487 1499 1505 1504 1506 1505 1505 1508 1514 1518 1526 1533
1473 1476 1477 1479 1480 1479 1478 1476 1474 1474 1472 1472 1472 1476 1477 1478 1479 1482 1476 1474 1472 1471 1472 1473 1473 1471 1471 1474 1479 1482 1482 1481 1481 1481 1485 1488 1502 1508 1510 1509 1508 1506 1505 1508 1516 1520 1532
1467 1470 1472 1474 1475 1475 1474 1473 1471 1470 1469 1470 1471 1475 1477 1477 1477 1477 1476 1473 1470 1470 1470 1470 1472 1471 1471 1472 1477 1480 1482 1483 1483 1483 1483 1484 1497 1500 1503 1496 1499 1507 1501 1502 1505 1506 1502
1460 1464 1467 1469 1471 1471 1471 1469 1469 1468 1467 1468 1467 1470 1470 1475 1475 1476 1476 1472 1470 1471 1472 1471 1473 1472 1473 1476 1476 1481 1481 1482 1483 1483 1484 1487 1500 1505 1497 1496 1498 1498 1499 1497 1501 1499 1499
1453 1458 1461 1465 1466 1467 1467 1466 1466 1465 1465 1466 1466 1467 1470 1473 1474 1475 1475 1473 1471 1471 1470 1471 1471 1471 1471 1474 1473 1478 1479 1481 1482 1484 1485 1489 1502 1502 1504 1499 1499 1500 1499 1499 1495 1493 1493
1447 1453 1456 1460 1462 1463 1464 1464 1463 1463 1462 1463 1463 1464 1466 1472 1472 1474 1474 1474 1472 1472 1472 1472 1471 1472 1471 1473 1474 1472 1476 1475 1476 1482 1488 1491 1497 1505 1508 1505 1500 1496 1488 1491 1491 1489 1488
1442 1448 1452 1455 1458 1459 1461 1461 1461 1461 1461 1461 1460 1462 1465 1472 1471 1472 1474 1473 1472 1473 1473 1472 1471 1471 1476 1472 1471 1472 1473 1477 1479 1482 1483 1492 1494 1501 1505 1503 1517 1484 1481 1482 1484 1481 1483
1436 1443 1447 1451 1455 1456 1458 1459 1459 1459 1459 1460 1458 1460 1461 1470 1471 1472 1473 1473 1473 1473 1474 1473 1473 1474 1472 1473 1476 1478 1482 1479 1480 1482 1485 1486 1494 1506 1510 1518 1497 1480 1482 1485 1484 1477 1476
1429 1437 1443 1448 1451 1453 1455 1457 1457 1457 1458 1459 1457 1458 1460 1463 1472 1472 1473 1474 1477 1475 1473 1475 1475 1473 1474 1475 1478 1482 1483 1484 1487 1486 1486 1488 1488 1495 1507 1509 1499 1484 1478 1479 1480 1484 1474
1423 1431 1438 1444 1447 1451 1453 1455 1455 1456 1457 1457 1456 1457 1460 1462 1471 1473 1473 1476 1477 1478 1480 1478 1476 1475 1473 1474 1478 1482 1486 1481 1484 1484 1486 1491 1493 1498 1500 1503 1492 1479 1478 1478 1489 1484 1472
1419 1426 1434 1440 1444 1448 1451 1452 1453 1454 1455 1456 1455 1456 1459 1462 1470 1474 1475 1475 1476 1478 1478 1478 1478 1478 1475 1475 1474 1480 1484 1483 1482 1479 1482 1485 1491 1496 1498 1497 1501 1475 1478 1479 1477 1472 1471
1416 1423 1430 1436 1442 1446 1449 1450 1451 1453 1454 1454 1454 1456 1458 1461 1471 1475 1476 1477 1478 1478 1479 1479 1481 1480 1480 1478 1480 1479 1480 1485 1484 1483 1481 1484 1482 1486 1487 1485 1474 1475 1475 1475 1474 1472 1469